Radiation Dose at Monitoring Post of Fukushima Daini Nuclear Power Station
Date,Time,MP-1(microSv/h),MP-2(microSv/h),MP-3(microSv/h),MP-4(microSv/h),MP-5(microSv/h),MP-6(microSv/h),MP-7(microSv/h),Wind Direction,Wind Velocity(m/s),Rain
2013/11/05,00:00,0.8,0.5,0.8,0.8,0.7,0.4,0.3,northwest,4.8,No
2013/11/05,00:10,0.8,0.5,0.8,0.8,0.7,0.4,0.3,north-northwest,4.3,No
2013/11/05,00:20,0.8,0.5,0.8,0.8,0.7,0.4,0.3,north-northwest,5.0,No
2013/11/05,00:30,0.8,0.5,0.8,0.8,0.7,0.4,0.3,north-northwest,4.7,No
2013/11/05,00:40,0.8,0.5,0.8,0.8,0.7,0.4,0.3,north-northwest,4.8,No
2013/11/05,00:50,0.8,0.5,0.8,0.8,0.7,0.4,0.3,northwest,4.5,No
2013/11/05,01:00,0.8,0.5,0.8,0.8,0.7,0.4,0.3,northwest,6.4,No
2013/11/05,01:10,0.8,0.5,0.8,0.8,0.7,0.4,0.3,northwest,5.4,No
2013/11/05,01:20,0.8,0.5,0.8,0.8,0.7,0.4,0.3,northwest,5.0,No
2013/11/05,01:30,0.8,0.5,0.8,0.8,0.7,0.4,0.3,northwest,4.5,No
2013/11/05,01:40,0.8,0.5,0.8,0.8,0.7,0.4,0.3,northwest,2.4,No
2013/11/05,01:50,0.8,0.5,0.8,0.8,0.7,0.4,0.3,north-northwest,2.4,No
2013/11/05,02:00,0.8,0.5,0.8,0.8,0.7,0.4,0.3,north-northwest,3.6,No
2013/11/05,02:10,0.8,0.5,0.8,0.8,0.7,0.4,0.3,north-northwest,2.7,No
2013/11/05,02:20,0.8,0.5,0.8,0.8,0.7,0.4,0.3,north-northwest,2.8,No
2013/11/05,02:30,0.8,0.5,0.8,0.8,0.7,0.4,0.3,north,3.5,No
2013/11/05,02:40,0.8,0.5,0.8,0.8,0.7,0.4,0.3,north,5.3,No
2013/11/05,02:50,0.8,0.5,0.8,0.8,0.7,0.4,0.3,north,7.2,No
2013/11/05,03:00,0.8,0.5,0.8,0.8,0.7,0.4,0.3,north,8.8,No
2013/11/05,03:10,0.8,0.5,0.8,0.8,0.7,0.4,0.3,north-northwest,8.8,No
2013/11/05,03:20,0.8,0.5,0.8,0.8,0.7,0.4,0.3,north-northwest,9.4,No
2013/11/05,03:30,0.8,0.5,0.8,0.8,0.7,0.4,0.3,northwest,8.8,No
2013/11/05,03:40,0.8,0.5,0.8,0.8,0.7,0.4,0.3,northwest,8.3,No
2013/11/05,03:50,0.8,0.5,0.8,0.8,0.7,0.4,0.3,northwest,9.2,No
2013/11/05,04:00,0.8,0.5,0.8,0.8,0.7,0.4,0.3,northwest,9.3,No
2013/11/05,04:10,0.8,0.5,0.8,0.8,0.7,0.4,0.3,northwest,9.7,No
2013/11/05,04:20,0.8,0.5,0.8,0.8,0.7,0.4,0.3,northwest,7.8,No
2013/11/05,04:30,0.8,0.5,0.8,0.8,0.7,0.4,0.3,northwest,7.3,No
2013/11/05,04:40,0.8,0.5,0.8,0.8,0.7,0.4,0.3,north-northwest,6.8,No
2013/11/05,04:50,0.8,0.5,0.8,0.8,0.7,0.4,0.3,northwest,8.3,No
2013/11/05,05:00,0.8,0.5,0.8,0.8,0.7,0.4,0.3,northwest,7.2,No
2013/11/05,05:10,0.8,0.5,0.8,0.8,0.7,0.4,0.3,north-northwest,7.0,No
2013/11/05,05:20,0.8,0.5,0.8,0.8,0.7,0.4,0.3,north-northwest,8.1,No
2013/11/05,05:30,0.8,0.5,0.8,0.8,0.7,0.4,0.3,north-northwest,7.9,No
2013/11/05,05:40,0.8,0.5,0.8,0.8,0.7,0.4,0.3,northwest,7.8,No
2013/11/05,05:50,0.8,0.5,0.8,0.8,0.7,0.4,0.3,northwest,7.8,No
2013/11/05,06:00,0.8,0.5,0.8,0.8,0.7,0.4,0.3,northwest,7.8,No
2013/11/05,06:10,0.8,0.5,0.8,0.8,0.7,0.4,0.3,northwest,7.6,No
2013/11/05,06:20,0.8,0.5,0.8,0.8,0.7,0.4,0.3,north-northwest,6.2,No
2013/11/05,06:30,0.8,0.5,0.8,0.8,0.7,0.4,0.3,north-northwest,5.3,No
2013/11/05,06:40,0.8,0.5,0.8,0.8,0.7,0.4,0.3,north-northwest,5.8,No
2013/11/05,06:50,0.8,0.5,0.8,0.8,0.7,0.4,0.3,north-northwest,5.1,No
2013/11/05,07:00,0.8,0.5,0.8,0.8,0.7,0.4,0.3,north-northwest,5.5,No
2013/11/05,07:10,0.8,0.5,0.8,0.8,0.7,0.4,0.3,north-northwest,5.0,No
2013/11/05,07:20,0.8,0.5,0.8,0.8,0.7,0.4,0.3,north-northwest,5.0,No
2013/11/05,07:30,0.8,0.5,0.8,0.8,0.7,0.4,0.3,north-northwest,5.0,No
2013/11/05,07:40,0.8,0.5,0.8,0.8,0.7,0.4,0.3,north-northwest,5.3,No
2013/11/05,07:50,0.8,0.5,0.8,0.8,0.7,0.4,0.3,north-northwest,4.4,No
2013/11/05,08:00,0.8,0.5,0.8,0.8,0.7,0.4,0.3,north-northwest,3.6,No
2013/11/05,08:10,0.8,0.5,0.8,0.8,0.7,0.4,0.3,north-northwest,2.7,No
2013/11/05,08:20,0.8,0.5,0.8,0.8,0.7,0.4,0.3,north,2.3,No
2013/11/05,08:30,0.8,0.5,0.8,0.8,0.7,0.4,0.3,north,3.7,No
2013/11/05,08:40,0.8,0.5,0.8,0.8,0.7,0.4,0.3,north-northwest,3.7,No
2013/11/05,08:50,0.8,0.5,0.8,0.8,0.7,0.4,0.3,north-northwest,3.4,No
2013/11/05,09:00,0.8,0.5,0.8,0.8,0.7,0.4,0.3,north,3.9,No
2013/11/05,09:10,0.8,0.5,0.8,0.8,0.7,0.4,0.3,north,7.0,No
2013/11/05,09:20,0.8,0.5,0.8,0.8,0.7,0.4,0.3,north,6.3,No
2013/11/05,09:30,0.8,0.5,0.8,0.8,0.7,0.4,0.3,north,6.6,No
2013/11/05,09:40,0.8,0.5,0.8,0.8,0.7,0.4,0.3,north,6.2,No
2013/11/05,09:50,0.8,0.5,0.8,0.8,0.7,0.4,0.3,north,6.8,No
2013/11/05,10:00,0.8,0.5,0.8,0.8,0.7,0.4,0.3,north,7.5,No
2013/11/05,10:10,0.8,0.6,0.8,0.8,0.7,0.4,0.3,north,7.9,No
2013/11/05,10:20,0.8,0.5,0.8,0.8,0.7,0.4,0.3,north,5.9,No
2013/11/05,10:30,0.8,0.6,0.8,0.8,0.7,0.4,0.3,north,4.4,No
2013/11/05,10:40,0.8,0.6,0.8,0.8,0.7,0.4,0.3,north-northeast,5.6,No
2013/11/05,10:50,0.8,0.6,0.8,0.8,0.7,0.4,0.3,northeast,5.6,No
2013/11/05,11:00,0.8,0.6,0.8,0.8,0.7,0.4,0.3,north-northeast,5.4,No
2013/11/05,11:10,0.8,0.6,0.8,0.8,0.7,0.4,0.3,northeast,7.6,No
2013/11/05,11:20,0.8,0.6,0.8,0.8,0.7,0.4,0.3,northeast,6.5,No
2013/11/05,11:30,0.8,0.6,0.8,0.8,0.7,0.4,0.3,northeast,5.7,No
2013/11/05,11:40,0.8,0.6,0.8,0.8,0.7,0.4,0.3,north-northeast,6.4,No
2013/11/05,11:50,0.8,0.6,0.8,0.8,0.7,0.4,0.3,north-northeast,7.5,No
2013/11/05,12:00,0.8,0.6,0.8,0.8,0.7,0.4,0.3,northeast,7.5,No
2013/11/05,12:10,0.8,0.6,0.8,0.8,0.7,0.4,0.3,north-northeast,6.6,No
2013/11/05,12:20,0.8,0.6,0.8,0.8,0.7,0.4,0.3,northeast,6.4,No
2013/11/05,12:30,0.8,0.6,0.8,0.8,0.7,0.4,0.3,northeast,5.6,No
2013/11/05,12:40,0.8,0.6,0.8,0.8,0.7,0.4,0.3,northeast,7.0,No
2013/11/05,12:50,0.8,0.6,0.8,0.8,0.7,0.4,0.3,northeast,5.6,No
2013/11/05,13:00,0.8,0.6,0.8,0.8,0.7,0.4,0.3,northeast,6.2,No
2013/11/05,13:10,0.8,0.6,0.8,0.8,0.7,0.4,0.3,northeast,6.8,No
2013/11/05,13:20,0.8,0.6,0.8,0.8,0.7,0.4,0.3,northeast,5.2,No
2013/11/05,13:30,0.8,0.6,0.8,0.8,0.7,0.4,0.3,northeast,5.6,No
2013/11/05,13:40,0.8,0.6,0.8,0.8,0.7,0.4,0.3,northeast,5.4,No
2013/11/05,13:50,0.8,0.6,0.8,0.8,0.7,0.4,0.3,northeast,3.7,No
2013/11/05,14:00,0.8,0.6,0.8,0.8,0.7,0.4,0.3,northeast,4.1,No
2013/11/05,14:10,0.8,0.6,0.8,0.8,0.7,0.4,0.3,northeast,4.6,No
2013/11/05,14:20,0.8,0.6,0.8,0.8,0.7,0.4,0.3,northeast,4.5,No
2013/11/05,14:30,0.8,0.6,0.8,0.8,0.7,0.4,0.3,north-northeast,4.0,No
2013/11/05,14:40,0.8,0.6,0.8,0.8,0.7,0.4,0.3,north-northeast,2.2,No
2013/11/05,14:50,0.8,0.6,0.8,0.8,0.7,0.4,0.3,northeast,2.4,No
2013/11/05,15:00,0.8,0.6,0.8,0.8,0.7,0.4,0.3,northeast,3.1,No
2013/11/05,15:10,0.8,0.6,0.8,0.8,0.7,0.4,0.3,northeast,2.5,No
2013/11/05,15:20,0.8,0.6,0.8,0.8,0.7,0.4,0.3,north-northeast,1.8,No
2013/11/05,15:30,0.8,0.6,0.8,0.8,0.7,0.4,0.3,north,1.6,No
2013/11/05,15:40,0.8,0.5,0.8,0.8,0.7,0.4,0.3,north-northeast,2.3,No
2013/11/05,15:50,0.8,0.5,0.8,0.8,0.7,0.4,0.3,north-northwest,1.2,No
2013/11/05,16:00,0.8,0.5,0.8,0.8,0.7,0.4,0.3,north,0.7,No
2013/11/05,16:10,0.8,0.5,0.8,0.8,0.7,0.4,0.3,north,1.0,No
2013/11/05,16:20,0.8,0.5,0.8,0.8,0.7,0.4,0.3,north,0.9,No
2013/11/05,16:30,0.8,0.5,0.8,0.8,0.7,0.4,0.3,north,0.5,No
2013/11/05,16:40,0.8,0.5,0.8,0.8,0.7,0.4,0.3,northwest,0.6,No
2013/11/05,16:50,0.8,0.5,0.8,0.8,0.7,0.4,0.3,-,CALM,No
2013/11/05,17:00,0.8,0.5,0.8,0.8,0.7,0.4,0.3,-,CALM,No
2013/11/05,17:10,0.8,0.5,0.8,0.8,0.7,0.4,0.3,-,CALM,No
2013/11/05,17:20,0.8,0.5,0.8,0.8,0.7,0.4,0.3,-,CALM,No
2013/11/05,17:30,0.8,0.5,0.8,0.8,0.7,0.4,0.3,-,CALM,No
2013/11/05,17:40,0.8,0.5,0.8,0.8,0.7,0.4,0.3,-,CALM,No
2013/11/05,17:50,0.8,0.5,0.8,0.8,0.7,0.4,0.3,-,CALM,No
2013/11/05,18:00,0.8,0.5,0.8,0.8,0.7,0.4,0.3,southwest,0.5,No
2013/11/05,18:10,0.8,0.5,0.8,0.8,0.7,0.4,0.3,southwest,1.0,No
2013/11/05,18:20,0.8,0.5,0.8,0.8,0.7,0.4,0.3,-,CALM,No
2013/11/05,18:30,0.8,0.5,0.8,0.8,0.7,0.4,0.3,west,0.8,No
2013/11/05,18:40,0.8,0.5,0.8,0.8,0.7,0.4,0.3,west,3.1,No
2013/11/05,18:50,0.8,0.5,0.8,0.8,0.7,0.4,0.3,west,3.1,No
2013/11/05,19:00,0.8,0.5,0.8,0.8,0.7,0.4,0.3,west-northwest,1.8,No
2013/11/05,19:10,0.8,0.5,0.8,0.8,0.7,0.4,0.3,northwest,0.8,No
2013/11/05,19:20,0.8,0.5,0.8,0.8,0.7,0.4,0.3,west-northwest,1.4,No
2013/11/05,19:30,0.8,0.5,0.8,0.8,0.7,0.4,0.3,north-northwest,1.9,No
2013/11/05,19:40,0.8,0.5,0.8,0.8,0.7,0.4,0.3,north-northwest,2.4,No
2013/11/05,19:50,0.8,0.5,0.8,0.8,0.7,0.4,0.3,north-northwest,2.5,No
2013/11/05,20:00,0.8,0.5,0.8,0.8,0.7,0.4,0.3,north-northwest,2.5,No
2013/11/05,20:10,0.8,0.5,0.8,0.8,0.7,0.4,0.3,north,1.8,No
2013/11/05,20:20,0.8,0.5,0.8,0.8,0.7,0.4,0.3,north,2.8,No
2013/11/05,20:30,0.8,0.5,0.8,0.8,0.7,0.4,0.3,north-northwest,3.1,No
2013/11/05,20:40,0.8,0.5,0.8,0.8,0.7,0.4,0.3,north-northwest,3.6,No
2013/11/05,20:50,0.8,0.5,0.8,0.8,0.7,0.4,0.3,north-northwest,4.1,No
2013/11/05,21:00,0.8,0.5,0.8,0.8,0.7,0.4,0.3,north,3.6,No
2013/11/05,21:10,0.8,0.5,0.8,0.8,0.7,0.4,0.3,north,2.9,No
2013/11/05,21:20,0.8,0.5,0.8,0.8,0.7,0.4,0.3,north-northwest,1.6,No
2013/11/05,21:30,0.8,0.5,0.8,0.8,0.7,0.4,0.3,north-northwest,1.4,No
2013/11/05,21:40,0.8,0.5,0.8,0.8,0.7,0.4,0.3,north-northwest,1.1,No
2013/11/05,21:50,0.8,0.5,0.8,0.8,0.7,0.4,0.3,north,0.6,No
2013/11/05,22:00,0.8,0.5,0.8,0.8,0.7,0.4,0.3,-,CALM,No
2013/11/05,22:10,0.8,0.5,0.8,0.8,0.7,0.4,0.3,-,CALM,No
2013/11/05,22:20,0.8,0.5,0.8,0.8,0.7,0.4,0.3,-,CALM,No
2013/11/05,22:30,0.8,0.5,0.8,0.8,0.7,0.4,0.3,-,CALM,No
2013/11/05,22:40,0.8,0.5,0.8,0.8,0.7,0.4,0.3,-,CALM,No
2013/11/05,22:50,0.8,0.5,0.8,0.8,0.7,0.4,0.3,north-northwest,0.7,No
2013/11/05,23:00,0.8,0.5,0.8,0.8,0.7,0.4,0.3,north-northwest,0.8,No
2013/11/05,23:10,0.8,0.5,0.8,0.8,0.7,0.4,0.3,northeast,0.7,No
2013/11/05,23:20,0.8,0.5,0.8,0.8,0.7,0.4,0.3,east-southeast,0.7,No
2013/11/05,23:30,0.8,0.5,0.8,0.8,0.7,0.4,0.3,-,CALM,No
2013/11/05,23:40,0.8,0.5,0.8,0.8,0.7,0.4,0.3,-,CALM,No
2013/11/05,23:50,0.8,0.5,0.8,0.8,0.7,0.4,0.3,-,CALM,No
